• MPC Preparation (Info)

  • MPEC 2023-K96 : 2023 KE1

    The following Minor Planet Electronic Circular may be linked-to from your own Web pages, but must not otherwise be redistributed electronically.

    A form allowing access to any MPEC is at the bottom of this page.


    Read MPEC 2023-K95 Read MPEC 2023-K97


    M.P.E.C. 2023-K96                                  Issued 2023 May 22, 14:32 UT
    
         The Minor Planet Electronic Circulars contain information on unusual
             minor planets, routine data on comets and natural satellites,
             and occasional editorial announcements.  They are published
        on behalf of Division F of the International Astronomical Union by the
              Minor Planet Center, Smithsonian Astrophysical Observatory,
                              Cambridge, MA 02138, U.S.A.
    			  
                 Prepared using the Tamkin Foundation Computer Network
    
                                  MPC@CFA.HARVARD.EDU
                URL https://www.minorplanetcenter.net/    ISSN 1523-6714
    
                                    2023 KE1                                 
    
    
    Observations:
         K23K01E* C2023 05 18.30045613 04 52.732-00 54 27.23         21.76wXEK096F52
         K23K01E  C2023 05 18.32385813 04 52.466-00 55 12.12         21.59wXEK096F52
         K23K01E  C2023 05 18.33560213 04 52.316-00 55 34.38         21.71wXEK096F52
         K23K01E KC2023 05 19.09956013 04 57.06 -01 20 32.1          22.3 VuEK096H21
         K23K01E KC2023 05 19.10651613 04 57.01 -01 20 45.5          22.3 VuEK096H21
         K23K01E KC2023 05 19.11347313 04 56.96 -01 20 59.5          22.3 VuEK096H21
         K23K01E |C2023 05 20.99770 13 05 18.80 -02 24 47.9          21.4 GVEK096807
         K23K01E |C2023 05 21.00695 13 05 18.82 -02 25 07.7          21.3 GVEK096807
         K23K01E |C2023 05 21.01619 13 05 18.85 -02 25 27.2          21.3 GVEK096807
         K23K01E KC2023 05 21.13464013 05 19.71 -02 30 26.0          22.2 VuEK096H21
         K23K01E KC2023 05 21.14159613 05 19.73 -02 30 41.2          22.1 VuEK096H21
         K23K01E KC2023 05 21.14855413 05 19.75 -02 30 56.0          21.5 VuEK096H21
         K23K01E KC2023 05 22.10565213 05 37.78 -03 05 48.7          22.1 VuEK096H21
         K23K01E KC2023 05 22.11260913 05 37.85 -03 06 04.0          21.9 VuEK096H21
         K23K01E KC2023 05 22.11620213 05 37.87 -03 06 12.2          21.6 VuEK096H21
    
    Observer details:
    807 Cerro Tololo Observatory, La Serena.  Observers T. Linder, R. Holmes, L.
        Horn.  1.00-m f/10.0 astrograph + CCD.
    F52 Pan-STARRS 2, Haleakala.  Observers J. Bulger, T. Lowe, A. Schultz, I.
        Smith.  Measurers K. Chambers, S. Chastel, T. de Boer, J. Fairlamb, H.
        Gao, M. Huber, C.-C. Lin, E. Magnier, Y. Ramanjooloo, R. Wainscoat, R.
        Weryk.  1.8-m Ritchey-Chretien + CCD.
    H21 Astronomical Research Observatory, Westfield.  Observer R. Holmes.
        Measurers T. Linder, R. Holmes, L. Horn.  1.3-m f/4.0 astrograph + CCD.
    
    Orbital elements:
    2023 KE1                                                 Earth MOID = 0.1232 AU
    Epoch 2023 Feb. 25.0 TT = JDT 2460000.5                 Bell                    
    M 333.17076              (2000.0)            P               Q                  
    n   0.23766370     Peri.  200.70835     -0.18024149     +0.97894125             
    a   2.5812346      Node    59.01851     -0.88600123     -0.11925714             
    e   0.5613412      Incl.    6.41903     -0.42721753     -0.16568576             
    P   4.15           H   23.35          G   0.15           U   9                  
    Residuals in seconds of arc
    230518 F52  0.2-  0.1-    230519 H21  0.1+  0.0     230521 H21  0.2-  0.1-
    230518 F52  0.1-  0.2-    230520 807  0.1-  0.1-    230521 H21  0.2-  0.0
    230518 F52  0.4-  0.0     230521 807  0.1-  0.1-    230522 H21  0.2+  0.0
    230519 H21  0.5+  0.1-    230521 807  0.0   0.2+    230522 H21  0.5+  0.2+
    230519 H21  0.3+  0.3+    230521 H21  0.1-  0.2+    230522 H21  0.4+  0.0
    
    Ephemeris:
    2023 KE1                 a,e,i = 2.58, 0.56, 6                   q = 1.1323
    Date    TT    R. A. (2000) Decl.     Delta      r    Elong.  Phase     V
    2023 04 22    13 17 59.5 +06 29 22   0.3279  1.3167   159.2    15.7    22.4
    ...
    2023 05 07    13 07 47.2 +03 45 34   0.2635  1.2379   146.9    26.5    22.1
    ...
    2023 05 15    13 05 01.5 +00 43 48   0.2369  1.2031   140.5    32.3    22.0
    ...
    2023 05 21    13 05 17.7 -02 25 10   0.2199  1.1810   136.4    36.2    21.9
    2023 05 22    13 05 35.3 -03 01 25   0.2172  1.1777   135.8    36.8    21.9
    2023 05 23    13 05 57.8 -03 39 04   0.2147  1.1744   135.2    37.4    21.9
    ...
    2023 05 29    13 10 02.3 -07 55 11   0.2006  1.1575   132.1    40.5    21.8
    ...
    2023 06 06    13 21 12.7 -14 57 04   0.1856  1.1414   129.4    43.4    21.7
    ...
    2023 06 21    14 06 13.3 -31 10 31   0.1730  1.1329   128.9    44.3    21.5
    
    M. P. C. Staff               (C) Copyright 2023 MPC           M.P.E.C. 2023-K96
    


    Read MPEC 2023-K95 Read MPEC 2023-K97


    MPEC number:

    Enter an MPEC number in one of the following forms:

    • 1997-B01 (the full form)
    • J97B01 (the packed version of the full form)
    • B01 (the abbreviated form)